Regional Weather Roundup
Issued by NWS

Home | Current Version | Previous Version | Text Only | Print | Product List | Glossary Off
Versions: 1 2 3 4 5 6 7 8 9 10 11 12 13 14 15 16 17 18 19 20 21 22 23 24 25 26 27 28 29 30 31 32 33 34 35 36 37 38 39 40 41 42 43 44 45 46 47 48 49 50

000
ASUS43 KMPX 231610
RWRMN
WEATHER ROUNDUP FOR MINNESOTA
NATIONAL WEATHER SERVICE TWIN CITIES/CHANHASSEN MN
1100 AM CDT WED AUG 23 2017


NOTE: "FAIR" INDICATES FEW OR NO CLOUDS BELOW 12,000 FEET WITH NO
SIGNIFICANT WEATHER AND/OR OBSTRUCTIONS TO VISIBILITY. N/A MEANS
CURRENT SKY AND/OR WEATHER CONDITIONS ARE NOT AVAILABLE.

MNZ060>063-068>070-231700-
   Twin Cities Metro

CITY           SKY/WX    TMP DP  RH WIND       PRES   REMARKS
TWIN CITIES    SUNNY     70  53  54 NW8       30.10F
ST PAUL        SUNNY     68  55  63 NW9       30.11S
CRYSTAL        SUNNY     68  51  54 NW6       30.10S
BLAINE         MOSUNNY   68  55  64 N8G16     30.11S
LAKEVILLE      SUNNY     68  54  60 NW8       30.11S
EDEN PRAIRIE   SUNNY     69  53  56 N9        30.10S
SOUTH ST PAUL  SUNNY     68  53  58 N6        30.10S
LAKE ELMO      FAIR      66  55  68 NW6       30.11S
$$
MNZ001>005-007-008-013>017-022>024-027-028-231700-
   Northwest Minnesota

CITY           SKY/WX    TMP DP  RH WIND       PRES   REMARKS
BEMIDJI        MOSUNNY   61  50  67 NW5       30.12S
HALLOCK        CLOUDY    63  54  72 E3        30.10S
ROSEAU           N/A     55  50  82 CALM      30.12F
WARROAD        CLOUDY    57  54  88 CALM      30.13S
THIEF RVR FALL CLOUDY    63  52  67 E5        30.12F
CROOKSTON      SUNNY     66  52  59 CALM      30.11S
FOSSTON        CLOUDY    64  61  88 NE3       30.12F
DETROIT LAKES  SUNNY     64  50  59 NE3       30.13S
MOORHEAD       SUNNY     66  52  59 CALM      30.11S
PARK RAPIDS    CLOUDY    64  51  62 N7        30.12S
MAHNOMEN       FAIR      63  53  69 NE5       30.11F
$$
MNZ006-009>011-018-025>026-231700-
   North Central Minnesota

CITY           SKY/WX    TMP DP  RH WIND       PRES   REMARKS
BAUDETTE       CLOUDY    60  52  74 NE3       30.12S
FLAG ISLAND    CLOUDY    59  48  67 CALM      30.11R
INTL FALLS     PTSUNNY   61  48  62 N7        30.11S
WASKISH        CLOUDY    61  52  72 CALM      30.12F
BIG FORK       MOSUNNY   63  50  63 N6        30.12S
LONGVILLE      PTSUNNY   63  52  67 N3        30.12R
GRAND RAPIDS   CLOUDY    60  49  66 NW9       30.14R
CRANE LAKE     PTSUNNY   57  48  72 N6        30.14R
ORR            MOSUNNY   59  46  63 NW5       30.10R
COOK           PTSUNNY   61  48  63 W7        30.12S
WALKER         CLOUDY    62  52  69 CALM      30.12S
$$
MNZ012-019>021-037-231700-
   Northeast Minnesota

CITY           SKY/WX    TMP DP  RH WIND       PRES   REMARKS
DULUTH         PTSUNNY   60  49  66 NW8G20    30.10R
ELY            PTSUNNY   55  45  67 NW5       30.11R
HIBBING        PTSUNNY   60  50  69 NW8       30.11S
EVELETH        MOSUNNY   59  42  53 N6        30.12S
DULUTH HARBOR  PTSUNNY   63  54  72 CALM      30.10R
TWO HARBORS    PTSUNNY   64  52  63 NW5       30.07S
SILVER BAY     MOSUNNY   63  48  59 VRB7      30.07S
GRAND MARAIS     N/A     63  40  42 CALM      30.06R
G MARAIS ARPRT SUNNY     54  34  47 N13G24    30.06S
$$
MNZ029>031-032-039>041-046>048-054>057-064-231700-
   West Central Minnesota

CITY           SKY/WX    TMP DP  RH WIND       PRES   REMARKS
FERGUS FALLS   SUNNY     68  52  56 CALM      30.11S
WHEATON        SUNNY     70  48  46 CALM      30.13S
MORRIS         SUNNY     70  52  52 CALM      30.12R
ALEXANDRIA     SUNNY     69  50  50 NE3       30.14S
ELBOW LAKE     FAIR      67  51  57 CALM      30.12F
WADENA         SUNNY     66  52  59 N3        30.12S
GLENWOOD       SUNNY     70  52  52 N5        30.13S
APPLETON       SUNNY     70  50  49 CALM      30.12S
BENSON         SUNNY     70  52  52 W5        30.14S
ORTONVILLE     SUNNY     70  48  46 MISG      30.12S
MADISON        SUNNY     72  55  56 CALM      30.12F
WILLMAR        FAIR      70  54  56 CALM      30.14S
$$
MNZ033>034-036-042>043-049>051-058-059-231700-
   Central Minnesota

CITY           SKY/WX    TMP DP  RH WIND       PRES   REMARKS
ST CLOUD       SUNNY     66  55  67 NW8       30.12S
SAUK CENTRE    FAIR      67  51  56 N3        30.13R
PAYNESVILLE    SUNNY     68  53  58 N5        30.13R
AITKIN         MOSUNNY   64  52  63 N7        30.11S
PINE RIVER     PTSUNNY   63  50  63 N8        30.15S
BRAINERD       MOSUNNY   64  52  64 VRB6      30.12S
STAPLES        MOSUNNY   64  52  63 NW3       30.12F
LONG PRAIRIE   FAIR      64  52  63 NW5       30.13S
LITTLE FALLS   SUNNY     63  50  63 CALM      30.13S
LITCHFIELD     SUNNY     72  55  56 N6        30.13R
BUFFALO        SUNNY     67  51  56 N8        30.13S
MAPLE LAKE     SUNNY     68  56  64 N6        30.13S
HUTCHINSON     CLOUDY    70  55  59 NW3       30.14R
$$
MNZ037-044-045-052-053-231700-
   East Central Minnesota

CITY           SKY/WX    TMP DP  RH WIND       PRES   REMARKS
PRINCETON      MOSUNNY   68  54  60 NW7       30.12S
MORA           MOSUNNY   64  52  63 N5        30.13S
CAMBRIDGE      SUNNY     66  52  59 W5        30.12S
RUSH CITY      MOSUNNY   65  52  63 N9        30.11S
MOOSE LAKE     MOSUNNY   63  48  59 N8        30.09S
HINCKLEY       PTSUNNY   64  52  63 NW8       30.11S
CLOQUET        PTSUNNY   61  46  59 NW9       30.11R
MCGREGOR       MOSUNNY   63  50  63 N9        30.13S
$$
MNZ071>073-080-081-089-090-097-098-231700-
   Southwest Minnesota

CITY           SKY/WX    TMP DP  RH WIND       PRES   REMARKS
MONTEVIDEO     SUNNY     73  63  68 CALM      30.13S
GRANITE FALLS  SUNNY     69  56  61 CALM      30.15S
CANBY          SUNNY     74  44  34 CALM      30.14S
MARSHALL       SUNNY     71  51  49 W5        30.13
REDWOOD FALLS  SUNNY     69  52  54 VRB3      30.13S
OLIVIA         SUNNY     70  54  56 NW3       30.13S
PIPESTONE      SUNNY     72  54  53 SW6       30.15S
WINDOM         SUNNY     72  54  53 W5        30.14F
WORTHINGTON    MOSUNNY   70  54  56 W9        30.16S
JACKSON        SUNNY     70  50  49 CALM      30.15S
TRACY          SUNNY     71  55  56 W3        30.14S
SLAYTON        MOSUNNY   69  50  50 W6        30.16S
$$
MNZ065>067-074>077-082>085-091>093-231700-
   South Central Minnesota

CITY           SKY/WX    TMP DP  RH WIND       PRES   REMARKS
MANKATO        SUNNY     67  54  63 VRB6      30.13S
NEW ULM        SUNNY     68  54  60 W7        30.13S
ST JAMES       SUNNY     70  55  60 W5        30.14S
FAIRMONT       SUNNY     71  52  50 NW8       30.14S
GLENCOE        SUNNY     69  58  69 NW5       30.12S
FARIBAULT      SUNNY     68  55  64 W5        30.12S
OWATONNA       SUNNY     68  55  64 NW7       30.12S
WASECA         SUNNY     68  54  60 W6        30.14S
ALBERT LEA     SUNNY     70  54  56 NW7       30.13S
$$
MNZ078>079-086>088-094>096-231700-
   Southeast Minnesota

CITY           SKY/WX    TMP DP  RH WIND       PRES   REMARKS
ROCHESTER      SUNNY     67  55  65 NW13      30.12S
RED WING       SUNNY     68  52  56 N6        30.09S
STANTON        SUNNY     67  56  66 NW7       30.10S
DODGE CENTER   SUNNY     66  54  63 NW8       30.12S
WINONA         SUNNY     70  55  60 NW7       30.10S
AUSTIN         SUNNY     68  54  60 W6        30.12S
PRESTON        SUNNY     66  53  63 NW8       30.12S
$$
ABBREVIATIONS USED IN REMARKS
   TC - TEMPERATURES IN CELSIUS
  WCI - WIND CHILL INDEX
   HX - HEAT INDEX
  VSB - VISIBILITY
$$




USA.gov is the U.S. government's official web portal to all federal, state and local government web resources and services.